Epoch,demod_status_bits,ebno,lock_status,signal_level,viterbi_ber
1663519205,C;S;V;F,13.3,0x00c000,-38.4,0.00e-0
1663519206,C;S;V;F,13.1,0x00c000,-38.1,1.51e-7
1663519207,C;S;V;F,13.4,0x00c000,-38.5,1.51e-7
1663519208,C;S;V;F,12.9,0x00c000,-39.0,6.06e-7
1663519209,C;S;V;F,12.4,0x00c000,-38.4,7.57e-7
1663519210,C;S;V;F,12.9,0x00c000,-38.6,3.03e-7
1663519211,C;S;V;F,13.6,0x00c000,-38.1,0.00e-0
1663519212,C;S;V;F,13.7,0x00c000,-37.8,
1663519213,C;S;V;F,13.5,0x00c000,-37.9,0.00e-0
1663519214,,12.8,0x00c000,-38.7,0.00e-0
1663519215,C;S;V;F,12.6,0x00c000,-39.1,0.00e-0
1663519216,C;S;V;F,12.7,0x00c000,-39.2,3.03e-7
1663519217,C;S;V;F,,0x00c000,-38.9,7.57e-7
1663519218,C;S;V;F,12.7,0x00c000,-39.0,7.57e-7
1663519219,C;S;V;F,13.0,0x00c000,,9.09e-7
1663519220,C;S;V;F,12.5,0x00c000,-38.7,1.05e-6
1663519221,C;S;V;F,13.0,0x00c000,-38.8,7.57e-7
1663519222,C;S;V;F,12.2,0x00c000,-39.9,3.78e-6
1663519223,C;S;V;F,12.1,0x00c000,-39.1,4.23e-6
1663519224,C;S;V;F,12.6,0x00c000,-38.8,1.51e-6
1663519225,C;S;V;F,13.7,0x00c000,-38.1,9.09e-7
1663519226,C;S;V;F,14.0,0x00c000,-37.8,0.00e-0
1663519227,C;S;V;F,13.5,0x00c000,-37.9,
1663519228,,12.2,0x00c000,-39.4,0.00e-0
1663519229,C;S;V;F,11.3,0x00c000,-40.0,4.54e-7
1663519230,C;S;V;F,12.3,0x00c000,-39.4,7.10e-6
1663519231,C;S;V;F,,0x00c000,-38.3,8.47e-6
1663519232,C;S;V;F,13.2,0x00c000,,3.63e-6
1663519233,C;S;V;F,14.3,0x00c000,-37.0,1.51e-7
1663519234,C;S;V;F,14.6,0x00c000,-38.6,0.00e-0
1663519235,C;S;V;F,12.7,0x00c000,-39.3,7.57e-7
1663519236,C;S;V;F,11.9,0x00c000,-39.7,3.02e-6
1663519237,C;S;V;F,12.4,0x00c000,-39.2,2.26e-6
1663519238,C;S;V;F,12.3,0x00c000,-39.6,2.11e-6
1663519239,C;S;V;F,12.3,0x00c000,-38.5,2.42e-6
1663519240,C;S;V;F,13.6,0x00c000,-38.3,0.00e-0
1663519241,C;S;V;F,13.5,0x00c000,-38.5,0.00e-0
1663519242,C;S;V;F,12.6,0x00c000,-40.8,1.03e-5
1663519243,,11.3,0x00c000,-40.3,
1663519244,C;S;V;F,12.9,0x00c000,-39.0,5.43e-5
1663519245,C;S;V;F,13.8,0x00c000,-38.1,1.78e-5
1663519246,C;S;V;F,,0x00c000,-38.4,7.57e-7
1663519247,C;S;V;F,13.5,0x00c000,-40.1,0.00e-0
1663519248,C;S;V;F,11.5,0x00c000,-41.2,3.02e-6
1663519249,C;S;V;F,10.2,0x00c000,,4.37e-5
1663519250,C;S;V;F,11.3,0x00c000,-40.4,7.34e-5
1663519251,C;S;V;F,12.9,0x00c000,-38.5,9.84e-6
1663519252,C;S;V;F,14.1,0x00c000,-37.8,6.06e-7
1663519253,C;S;V;F,13.2,0x00c000,-38.8,1.51e-7
1663519254,C;S;V;F,10.8,0x00c000,-41.1,2.27e-5
1663519255,C;S;V;F,10.4,0x00c000,-40.5,5.75e-5
1663519256,C;S;V;F,11.7,0x00c000,-39.2,2.75e-5
1663519257,C;S;V;F,13.2,0x00c000,-38.4,2.87e-6
1663519258,C;S;V;F,13.4,0x00c000,-38.6,0.00e-0
1663519259,C;S;V;F,11.7,0x00c000,-41.2,1.84e-5
1663519260,C;S;V;F,9.5,0x00c000,-41.8,1.50e-4
1663519261,C;S;V;F,10.2,0x00c000,-40.1,2.04e-4
1663519262,C;S;V;F,12.6,0x00c000,-38.4,1.72e-5
1663519263,C;S;V;F,13.5,0x00c000,-38.4,3.03e-7
1663519265,,9.1,0x00c000,-42.3,
1663519266,C;S;V;F,10.7,0x00c000,-41.2,1.59e-4
1663519267,C;S;V;F,,0x00c000,-39.5,3.05e-4
1663519268,C;S;V;F,12.4,0x00c000,-38.7,7.85e-5
1663519269,C;S;V;F,13.2,0x00c000,,7.57e-7
1663519270,C;S;V;F,12.7,0x00c000,-39.8,1.51e-7
1663519271,C;S;V;F,10.8,0x00c000,-40.9,1.21e-5
1663519272,C;S;V;F,10.7,0x00c000,-40.8,5.13e-5
1663519273,C;S;V;F,12.0,0x00c000,-38.9,1.49e-5
1663519274,C;S;V;F,13.4,0x00c000,-38.4,1.51e-6
1663519275,C;S;V;F,12.8,0x00c000,-39.5,1.51e-7
1663519276,C;S;V;F,11.7,0x00c000,-40.6,4.53e-6
1663519277,C;S;V;F,10.3,0x00c000,-41.3,
1663519278,,12.4,0x00c000,-39.5,6.34e-5
1663519279,C;S;V;F,13.0,0x00c000,-38.8,3.42e-5
1663519280,C;S;V;F,12.2,0x00c000,-39.8,1.96e-6
1663519281,C;S;V;F,,0x00c000,-40.0,1.36e-6
1663519282,C;S;V;F,11.6,0x00c000,-40.6,5.29e-6
1663519283,C;S;V;F,11.2,0x00c000,,1.45e-5
1663519284,C;S;V;F,12.1,0x00c000,-39.8,1.24e-5
1663519285,C;S;V;F,13.2,0x00c000,-39.0,2.72e-6
1663519286,C;S;V;F,12.4,0x00c000,-39.6,9.09e-7
1663519287,C;S;V;F,12.2,0x00c000,-39.9,1.66e-6
1663519288,C;S;V;F,11.7,0x00c000,-39.8,6.35e-6
1663519289,C;S;V;F,12.9,0x00c000,-38.8,4.38e-6
1663519290,C;S;V;F,13.3,0x00c000,-38.4,1.51e-7
1663519291,C;S;V;F,13.7,0x00c000,-38.2,0.00e-0
1663519292,C;S;V;F,13.2,0x00c000,-39.2,
1663519293,C;S;V;F,12.9,0x00c000,-38.9,0.00e-0
1663519294,,13.0,0x00c000,-38.9,3.03e-7
1663519295,C;S;V;F,13.1,0x00c000,-38.3,4.54e-7
1663519296,C;S;V;F,14.0,0x00c000,-38.0,1.51e-7
1663519297,C;S;V;F,,0x00c000,-38.2,0.00e-0
1663519298,C;S;V;F,13.6,0x00c000,-39.4,0.00e-0
1663519299,C;S;V;F,13.5,0x00c000,,3.03e-7
1663519300,C;S;V;F,12.5,0x00c000,-39.0,7.57e-7
1663519301,C;S;V;F,13.4,0x00c000,-38.7,1.51e-7
1663519302,C;S;V;F,13.3,0x00c000,-38.6,0.00e-0
1663519303,C;S;V;F,13.4,0x00c000,-38.7,0.00e-0
1663519304,C;S;V;F,13.6,0x00c000,-38.5,0.00e-0
1663519305,C;S;V;F,13.3,0x00c000,-38.7,0.00e-0
1663519306,C;S;V;F,13.8,0x00c000,-38.3,0.00e-0
1663519307,C;S;V;F,14.2,0x00c000,-38.0,0.00e-0
1663519308,C;S;V;F,14.1,0x00c000,-37.7,0.00e-0
1663519309,C;S;V;F,14.4,0x00c000,-37.7,0.00e-0
1663519310,C;S;V;F,14.4,0x00c000,-37.6,0.00e-0
1663519311,C;S;V;F,14.7,0x00c000,-37.4,
1663519312,C;S;V;F,14.4,0x00c000,-37.4,0.00e-0
1663519313,,14.6,0x00c000,-37.1,0.00e-0
1663519314,C;S;V;F,14.8,0x00c000,-37.2,0.00e-0
1663519315,C;S;V;F,14.4,0x00c000,-37.7,0.00e-0
1663519316,C;S;V;F,14.7,0x00c000,-37.5,0.00e-0
1663519317,C;S;V;F,14.1,0x00c000,-37.8,0.00e-0
1663519318,C;S;V;F,14.3,0x00c000,-37.5,0.00e-0
1663519319,C;S;V;F,14.5,0x00c000,-37.5,0.00e-0
1663519320,C;S;V;F,,0x00c000,-37.4,0.00e-0
1663519321,C;S;V;F,14.3,0x00c000,-37.8,0.00e-0
1663519322,C;S;V;F,14.3,0x00c000,-37.8,0.00e-0
1663519323,C;S;V;F,14.3,0x00c000,-37.9,0.00e-0
1663519324,C;S;V;F,14.2,0x00c000,,0.00e-0
1663519325,C;S;V;F,14.5,0x00c000,-37.4,0.00e-0
1663519326,C;S;V;F,15.1,0x00c000,-37.0,0.00e-0
1663519328,C;S;V;F,14.7,0x00c000,-37.2,0.00e-0
1663519329,C;S;V;F,14.7,0x00c000,-37.2,
1663519330,,14.4,0x00c000,-37.7,0.00e-0
1663519331,C;S;V;F,,0x00c000,-37.1,0.00e-0
1663519332,C;S;V;F,14.4,0x00c000,,0.00e-0
1663519333,C;S;V;F,15.0,0x00c000,-37.2,0.00e-0
1663519334,C;S;V;F,14.9,0x00c000,-37.2,0.00e-0
1663519335,C;S;V;F,14.7,0x00c000,-37.2,0.00e-0
1663519336,C;S;V;F,14.5,0x00c000,-37.2,0.00e-0
1663519337,C;S;V;F,14.7,0x00c000,-37.4,0.00e-0
1663519338,C;S;V;F,14.7,0x00c000,-37.3,0.00e-0
1663519339,C;S;V;F,14.3,0x00c000,-37.6,0.00e-0
1663519340,,14.4,0x00c000,-37.3,
1663519341,C;S;V;F,14.7,0x00c000,-37.3,0.00e-0
1663519342,C;S;V;F,14.4,0x00c000,-37.3,0.00e-0
1663519343,C;S;V;F,,0x00c000,-37.4,0.00e-0
1663519344,C;S;V;F,14.7,0x00c000,,0.00e-0
1663519345,C;S;V;F,14.7,0x00c000,-37.2,0.00e-0
1663519346,C;S;V;F,14.4,0x00c000,-37.7,0.00e-0
1663519347,C;S;V;F,14.1,0x00c000,-38.0,0.00e-0
1663519348,C;S;V;F,14.0,0x00c000,-37.9,0.00e-0
1663519349,C;S;V;F,14.4,0x00c000,-37.6,0.00e-0
1663519350,C;S;V;F,14.5,0x00c000,-37.4,0.00e-0
1663519351,C;S;V;F,14.5,0x00c000,-37.2,0.00e-0
1663519352,C;S;V;F,14.8,0x00c000,-37.5,0.00e-0
1663519353,,14.9,0x00c000,-37.2,
1663519354,C;S;V;F,14.4,0x00c000,-37.6,0.00e-0
1663519355,C;S;V;F,14.4,0x00c000,-37.8,0.00e-0
1663519356,C;S;V;F,14.2,0x00c000,-38.0,0.00e-0
1663519357,C;S;V;F,,0x00c000,-38.6,0.00e-0
1663519358,C;S;V;F,13.4,0x00c000,,0.00e-0
1663519359,C;S;V;F,13.5,0x00c000,-38.7,0.00e-0
1663519360,C;S;V;F,13.4,0x00c000,-38.6,0.00e-0
1663519361,C;S;V;F,13.8,0x00c000,-38.3,0.00e-0
1663519362,C;S;V;F,13.7,0x00c000,-38.0,0.00e-0
1663519363,C;S;V;F,13.8,0x00c000,-38.4,0.00e-0
1663519364,C;S;V;F,13.8,0x00c000,-38.0,0.00e-0
1663519365,C;S;V;F,13.9,0x00c000,-38.3,0.00e-0
1663519366,C;S;V;F,13.5,0x00c000,-38.4,0.00e-0
1663519367,C;S;V;F,13.8,0x00c000,-38.0,0.00e-0
1663519368,C;S;V;F,13.9,0x00c000,-38.3,0.00e-0
1663519369,C;S;V;F,13.9,0x00c000,-38.2,0.00e-0
1663519370,C;S;V;F,14.0,0x00c000,-38.0,
1663519371,,14.0,0x00c000,-38.2,0.00e-0
1663519372,C;S;V;F,14.0,0x00c000,-38.1,0.00e-0
1663519373,C;S;V;F,14.1,0x00c000,-38.1,0.00e-0
1663519374,C;S;V;F,13.9,0x00c000,-38.0,0.00e-0
1663519375,C;S;V;F,,0x00c000,-38.2,0.00e-0
1663519376,C;S;V;F,13.5,0x00c000,,0.00e-0
1663519377,C;S;V;F,13.5,0x00c000,-38.5,0.00e-0
1663519378,C;S;V;F,13.6,0x00c000,-38.5,0.00e-0
1663519379,C;S;V;F,13.3,0x00c000,-38.8,1.51e-7
1663519380,C;S;V;F,13.3,0x00c000,-38.6,1.51e-7
1663519381,C;S;V;F,13.6,0x00c000,-38.7,0.00e-0
1663519382,C;S;V;F,13.2,0x00c000,-38.4,0.00e-0
1663519383,C;S;V;F,13.3,0x00c000,-38.6,0.00e-0
1663519384,C;S;V;F,13.6,0x00c000,-38.3,0.00e-0
1663519385,C;S;V;F,13.4,0x00c000,-38.8,
1663519386,,13.2,0x00c000,-38.7,0.00e-0
1663519387,C;S;V;F,,,,0.00e-0
1663519391,C;S;V;F,13.5,0x00c000,-38.6,0.00e-0
1663519392,,13.1,0x00c000,-38.9,
1663519393,C;S;V;F,13.2,0x00c000,-38.9,0.00e-0
1663519394,C;S;V;F,12.3,0x00c000,-39.5,0.00e-0
1663519395,C;S;V;F,12.6,0x00c000,-39.6,9.09e-7
1663519396,C;S;V;F,,0x00c000,-40.0,1.51e-6
1663519397,C;S;V;F,12.4,0x00c000,,1.36e-6
1663519398,C;S;V;F,12.4,0x00c000,-39.3,3.32e-6
1663519399,C;S;V;F,12.7,0x00c000,-39.4,3.02e-6
1663519400,C;S;V;F,13.0,0x00c000,-38.9,7.57e-7
1663519401,C;S;V;F,12.7,0x00c000,-39.3,6.06e-7
1663519402,C;S;V;F,13.3,0x00c000,-38.9,3.03e-7
1663519403,C;S;V;F,13.4,0x00c000,-38.8,0.00e-0
1663519404,C;S;V;F,13.1,0x00c000,-39.1,1.51e-7
1663519405,C;S;V;F,12.6,0x00c000,-39.1,4.54e-7
1663519406,,12.9,0x00c000,-39.2,
1663519407,C;S;V;F,12.8,0x00c000,-38.3,4.54e-7
1663519408,C;S;V;F,14.3,0x00c000,-37.1,0.00e-0
1663519409,C;S;V;F,14.9,0x00c000,-37.5,0.00e-0
1663519410,C;S;V;F,14.5,0x00c000,-37.7,0.00e-0
1663519411,C;S;V;F,,0x00c000,-37.5,0.00e-0
1663519412,C;S;V;F,14.2,0x00c000,-38.0,0.00e-0
1663519413,C;S;V;F,14.2,0x00c000,-38.0,0.00e-0
1663519414,C;S;V;F,13.8,0x00c000,,0.00e-0
1663519415,C;S;V;F,13.6,0x00c000,-38.4,0.00e-0
1663519416,C;S;V;F,13.3,0x00c000,-38.8,0.00e-0
1663519417,C;S;V;F,13.4,0x00c000,-38.7,1.51e-7
1663519418,C;S;V;F,12.6,0x00c000,-39.4,4.54e-7
1663519419,C;S;V;F,12.5,0x00c000,-39.4,6.06e-7
1663519420,C;S;V;F,12.5,0x00c000,-39.3,9.09e-7
1663519421,C;S;V;F,12.3,0x00c000,-39.7,9.09e-7
1663519422,C;S;V;F,13.0,0x00c000,-38.8,1.66e-6
1663519423,,13.1,0x00c000,-39.2,
1663519424,C;S;V;F,12.7,0x00c000,-38.7,4.54e-7
1663519425,C;S;V;F,13.3,0x00c000,-39.2,4.54e-7
1663519426,C;S;V;F,,0x00c000,-38.8,1.51e-7
1663519427,C;S;V;F,13.1,0x00c000,-38.8,1.51e-7
1663519428,C;S;V;F,13.1,0x00c000,-39.4,0.00e-0
1663519429,C;S;V;F,13.1,0x00c000,,3.03e-7
1663519430,C;S;V;F,12.8,0x00c000,-39.0,4.54e-7
1663519431,C;S;V;F,13.6,0x00c000,-38.4,1.51e-7
1663519432,C;S;V;F,13.3,0x00c000,-38.7,0.00e-0
1663519433,C;S;V;F,12.9,0x00c000,-38.8,0.00e-0
1663519434,C;S;V;F,13.2,0x00c000,-38.8,0.00e-0
1663519435,C;S;V;F,12.9,0x00c000,-39.2,1.51e-7
1663519436,C;S;V;F,12.8,0x00c000,-39.5,7.57e-7
1663519437,C;S;V;F,12.5,0x00c000,-39.6,1.36e-6
1663519438,C;S;V;F,12.4,0x00c000,-39.5,2.42e-6
1663519439,C;S;V;F,12.5,0x00c000,-39.2,
1663519440,,13.0,0x00c000,-39.1,1.96e-6
1663519441,C;S;V;F,13.0,0x00c000,-39.2,3.03e-7
1663519442,C;S;V;F,12.8,0x00c000,-39.1,0.00e-0
1663519443,C;S;V;F,12.9,0x00c000,-39.0,1.51e-7
1663519444,C;S;V;F,13.4,0x00c000,-38.8,0.00e-0
1663519445,C;S;V;F,,0x00c000,-39.1,0.00e-0
1663519446,C;S;V;F,13.0,0x00c000,-38.4,0.00e-0
1663519447,C;S;V;F,13.4,0x00c000,-38.3,0.00e-0
1663519448,C;S;V;F,13.7,0x00c000,,0.00e-0
1663519449,C;S;V;F,13.7,0x00c000,-38.4,0.00e-0
1663519450,C;S;V;F,13.7,0x00c000,-38.3,0.00e-0
1663519451,C;S;V;F,13.6,0x00c000,-38.0,0.00e-0
1663519452,C;S;V;F,13.4,0x00c000,-38.5,0.00e-0
1663519455,C;S;V;F,13.9,0x00c000,-38.2,0.00e-0
1663519456,C;S;V;F,13.8,0x00c000,-37.9,0.00e-0
1663519457,C;S;V;F,13.7,0x00c000,-38.0,0.00e-0
1663519458,C;S;V;F,13.8,0x00c000,-38.3,0.00e-0
1663519459,C;S;V;F,13.9,0x00c000,-37.9,
1663519460,C;S;V;F,13.4,0x00c000,-38.6,0.00e-0
1663519461,,13.8,0x00c000,-38.2,0.00e-0
1663519462,C;S;V;F,13.7,0x00c000,-38.1,0.00e-0
1663519463,C;S;V;F,13.6,0x00c000,-38.5,0.00e-0
1663519464,C;S;V;F,13.9,0x00c000,-38.0,0.00e-0
1663519465,C;S;V;F,,0x00c000,-38.2,0.00e-0
1663519466,C;S;V;F,13.7,0x00c000,-38.3,0.00e-0
1663519467,C;S;V;F,13.6,0x00c000,-38.3,0.00e-0
1663519468,C;S;V;F,13.6,0x00c000,,0.00e-0
1663519469,C;S;V;F,13.6,0x00c000,-37.6,0.00e-0
1663519470,C;S;V;F,14.8,0x00c000,-37.1,0.00e-0
1663519471,C;S;V;F,14.8,0x00c000,-37.1,0.00e-0
1663519472,C;S;V;F,15.0,0x00c000,-36.8,0.00e-0
1663519473,C;S;V;F,14.8,0x00c000,-37.2,0.00e-0
1663519474,C;S;V;F,14.7,0x00c000,-37.3,0.00e-0
1663519475,C;S;V;F,14.5,0x00c000,-37.3,0.00e-0
1663519476,C;S;V;F,14.4,0x00c000,-37.8,0.00e-0
1663519477,C;S;V;F,14.4,0x00c000,-37.9,0.00e-0
1663519478,C;S;V;F,14.1,0x00c000,-37.9,0.00e-0
1663519479,C;S;V;F,13.8,0x00c000,-38.4,0.00e-0
1663519480,C;S;V;F,13.6,0x00c000,-37.9,
1663519481,,13.9,0x00c000,-38.0,0.00e-0
1663519482,C;S;V;F,14.0,0x00c000,-37.6,0.00e-0
1663519483,C;S;V;F,13.1,0x00c000,-38.8,0.00e-0
1663519484,C;S;V;F,12.1,0x00c000,-39.5,0.00e-0
1663519485,C;S;V;F,,0x00c000,-39.2,7.57e-7
1663519486,C;S;V;F,12.4,0x00c000,,2.11e-6
1663519487,C;S;V;F,12.9,0x00c000,-38.7,1.21e-6
1663519488,C;S;V;F,13.6,0x00c000,-38.4,1.51e-7
1663519489,C;S;V;F,13.4,0x00c000,-37.9,0.00e-0
1663519490,C;S;V;F,13.7,0x00c000,-38.1,0.00e-0
1663519491,C;S;V;F,13.8,0x00c000,-37.3,
1663519492,C;S;V;F,14.2,0x00c000,-37.7,0.00e-0
1663519493,,14.0,0x00c000,-37.7,0.00e-0
1663519494,C;S;V;F,13.4,0x00c000,-38.2,0.00e-0
1663519495,C;S;V;F,13.3,0x00c000,-38.7,0.00e-0
1663519496,C;S;V;F,,0x00c000,-39.1,1.51e-7
1663519497,C;S;V;F,12.9,0x00c000,,4.54e-7
1663519498,C;S;V;F,12.9,0x00c000,-39.1,9.09e-7
1663519499,C;S;V;F,12.9,0x00c000,-38.8,6.06e-7
1663519500,C;S;V;F,13.3,0x00c000,-38.6,3.03e-7
1663519501,C;S;V;F,13.0,0x00c000,-38.9,1.51e-7
1663519502,C;S;V;F,13.4,0x00c000,-38.3,3.03e-7
1663519503,C;S;V;F,12.6,0x00c000,-39.3,6.06e-7
1663519504,C;S;V;F,12.8,0x00c000,-39.2,9.09e-7
1663519505,C;S;V;F,12.5,0x00c000,-39.1,9.09e-7
1663519506,C;S;V;F,12.2,0x00c000,-39.6,1.51e-6
1663519507,C;S;V;F,11.7,0x00c000,-40.3,8.47e-6
1663519508,C;S;V;F,12.1,0x00c000,-39.0,9.99e-6
1663519509,,12.6,0x00c000,-39.4,
1663519510,C;S;V;F,11.8,0x00c000,-39.0,3.32e-6
1663519511,C;S;V;F,13.0,0x00c000,-38.7,4.53e-6
1663519512,C;S;V;F,12.6,0x00c000,-39.2,4.54e-7
1663519513,C;S;V;F,,0x00c000,,6.06e-7
1663519514,C;S;V;F,14.4,0x00c000,-37.2,7.57e-7
1663519515,C;S;V;F,12.7,0x00c000,-39.6,1.51e-6
1663519517,,0.0,0xc0504d,-40.7,
1663519518,-;-;-;-,,,,-1e-7
